Tracking 28790 objects as of 19-Apr-2024
HD Live streaming from Space Station
objects crossing your sky now

BLOCK DM R/B

Track BLOCK DM R/B now!


NORAD ID: 26769
Int'l Code: 2001-019D
Perigee: 7,061.1 km
Apogee: 35,915.7 km
Inclination: 17.7 °
Period: 771.3 minutes
Semi major axis: 27859 km
RCS: 28.6942 m2 (large)
Launch date: May 15, 2001
Source: Commonwealth of Independent States (former USSR) (CIS)
Launch site: TYURATAM MISSILE AND SPACE COMPLEX (TTMTR)

Note: This is a ROCKET BODY
Your satellite tracking list
Your tracking list is empty




NASA's NSSDC Master Catalog

Two Line Element Set (TLE):
1 26769U 01019D   24109.50507854 -.00000036  00000-0  00000-0 0  9991
2 26769  17.7093  83.1894 5178627 211.8865 352.8340  1.86700521156398
Source of the keplerian elements: AFSPC